Location: ???????
(55.4325°N, 39.0093°E)
Time: 07:51:47
(UTC+00:00)

Daily predictions for brighter satellites

Satellite Brightness Start Highest point End
(mag) Time Altitude Azimuth Time Altitude Azimuth Time Altitude Azimuth
GEOS 3 Rocket 4.3 18:19:55 10° ENE 18:24:35 33° ESE 18:29:10 10° S
Cosmos 1980 4.2 18:21:30 10° SW 18:27:08 68° NW 18:32:48 10° NNE
Okean 3 Rocket 3.9 18:24:20 10° N 18:28:42 55° ENE 18:33:00 10° SSE
Cosmos 923 Rocket 4.0 18:24:04 10° SSW 18:29:23 78° ESE 18:34:46 10° NNE
USA 234 3.5 18:23:27 10° E 18:30:01 79° N 18:36:34 10° W
Cosmos 1378 2.9 18:26:44 10° SSW 18:30:01 82° WNW 18:33:21 10° N
SPOT 5 3.5 18:25:42 10° S 18:30:12 49° W 18:34:33 10° NNW
Cosmos 921 Rocket 3.8 18:26:27 10° SSE 18:30:31 36° ESE 18:34:38 10° NE
Cosmos 1943 4.4 18:31:41 10° SSE 18:36:01 23° ESE 18:40:22 10° NE
ARGOS Delta rocket 4.1 18:32:00 10° S 18:37:08 75° W 18:42:00 10° NNW
Landsat 5 4.2 18:35:32 10° NE 18:38:54 29° E 18:42:13 10° SSE
Landsat 4 4.0 18:35:47 10° S 18:39:15 58° WSW 18:42:44 10° NNW
USA 306 2.6 18:35:52 10° W 18:39:37 70° S 18:43:30 10° ESE
Cosmos 1656 Rocket 4.0 18:34:46 10° NW 18:40:08 62° WSW 18:45:33 10° SSE
ATLAS 2AS CENTAUR R/B 2.9 18:33:20 10° SW 18:40:42 86° NW 18:47:47 10° NE
Terra 2.1 18:36:25 10° S 18:41:06 69° WSW 18:45:50 10° NNW
Okean O Rocket 4.2 18:38:16 10° SW 18:41:12 17° W 18:44:08 10° NW
USA 59 Rocket 0.9 18:40:35 10° NW 18:43:43 36° NNE 18:47:40 10° E
Meteor 1-14 Rocket 4.4 18:38:25 10° NNW 18:44:15 89° WSW 18:50:10 10° SSE
NOSS 2-1 (E) 4.4 18:41:24 10° NW 18:44:33 37° NNE 18:48:31 10° E
ERS-1 Rocket 3.5 18:40:32 10° S 18:45:28 57° W 18:50:28 10° NNW
Meteor 1-11 Rocket 4.0 18:42:08 10° N 18:47:41 58° ENE 18:53:15 10° SSE
USA 281 3.4 18:41:11 10° SSE 18:47:47 77° WSW 18:54:26 10° NNW
Cosmos 1733 4.4 18:46:11 10° N 18:49:13 26° ENE 18:52:13 10° SE
SPOT 3 Rocket 3.7 18:44:18 10° S 18:49:26 75° WSW 18:54:37 10° NNW
Cosmos 1943 Rocket 4.4 18:47:36 10° WNW 18:51:26 19° W 18:55:15 10° SW
Cosmos 1842 Rocket 3.9 18:48:09 10° SSE 18:52:26 49° E 18:56:43 10° NNE
Lacrosse 4 Rocket 3.4 18:49:36 10° NNW 18:52:49 22° NNE 18:56:03 10° E
H-2A R/B 4.2 18:51:09 10° ESE 18:54:26 23° ENE 18:57:48 10° N
NOSS 2-1 (D) 4.2 18:52:59 10° NW 18:56:13 42° NNE 19:00:17 10° ESE
USA 307 1.4 18:57:10 10° WSW 18:57:34 18° WSW 18:57:34 18° WSW
Cosmos 1331 Rocket 4.1 18:52:45 10° NNW 18:58:03 74° ENE 19:02:58 12° SE
Cosmos 1110 Rocket 4.1 18:54:28 10° NNW 18:59:50 81° ENE 19:04:49 12° SSE
Cosmos 2279 Rocket 4.0 18:53:45 10° N 19:00:00 86° E 19:06:12 10° SSE
Cosmos 1634 Rocket 4.3 18:54:31 10° NNW 19:00:49 70° W 19:07:01 10° S
Cosmos 1743 3.5 18:59:28 10° NNW 19:02:56 43° W 19:06:22 10° SSW
ARIANE 5 R/B 3.5 19:01:09 11° SE 19:05:01 38° ENE 19:09:03 10° N
USA 229 DEB 4.3 18:59:53 10° NW 19:07:02 60° SW 19:14:21 12° SSE
USA 229 4.2 18:59:58 10° NW 19:07:08 60° SW 19:14:28 12° SSE
ISS -3.0 19:05:25 10° W 19:08:29 34° SSW 19:10:58 14° SE
Cosmos 1340 Rocket 4.3 19:06:59 12° SE 19:09:35 22° E 19:12:41 10° NE
Cosmos 2112 Rocket 4.2 19:06:30 10° SSW 19:11:50 81° WNW 19:17:10 10° NNE
Cosmos 1680 Rocket 4.1 19:16:56 10° SW 19:22:11 62° WNW 19:27:26 10° NNE
Cosmos 1726 2.3 19:20:19 10° NNW 19:23:24 52° W 19:26:04 13° S
Meteor 2-6 Rocket 4.3 19:18:23 10° SSW 19:24:01 81° WNW 19:29:33 10° NNE
Cosmos 1805 4.0 19:24:56 10° N 19:28:27 38° ENE 19:31:06 16° SE
Cosmos 1743 Rocket 3.6 19:25:54 10° N 19:30:18 74° ENE 19:33:46 16° SSE
NOSS 2-1 (C) 3.5 19:28:03 10° NW 19:31:28 66° NE 19:35:57 10° ESE
Kosmos-1783 3.8 19:30:40 10° W 19:32:08 33° NNW 19:34:11 10° NE
Sich 1 3.0 19:31:18 10° NNW 19:35:41 87° ENE 19:39:07 16° SSE
SL-16 R/B 2.6 19:30:26 10° SW 19:36:05 67° NW 19:41:47 10° NNE
MetOp-A 4.4 19:33:25 11° S 19:37:29 49° W 19:42:10 10° NNW
Cosmos 1603 4.2 19:33:53 13° S 19:38:33 40° ESE 19:43:52 10° NE
Lacrosse 5 4.1 19:38:43 10° WSW 19:40:29 12° WSW 19:42:14 10° SW
Cosmos 1452 Rocket 4.0 19:37:08 10° NW 19:42:14 52° WSW 19:46:28 15° S
Cosmos 1536 3.4 19:40:01 10° NNW 19:43:45 48° W 19:46:58 13° SSW
Cosmos 1975 3.4 19:40:16 10° N 19:44:05 45° ENE 19:46:47 17° SE
Spot 1 4.3 19:40:32 10° NNE 19:44:33 63° WNW 19:48:36 10° SSW
Meteor 1-27 Rocket 3.8 19:39:56 14° S 19:44:43 63° E 19:50:12 10° NNE
Cosmos 1408 Rocket 4.2 19:41:02 10° NNW 19:45:22 52° W 19:49:10 13° S
Cosmos 2369 Rocket 3.5 19:41:01 10° NW 19:45:48 29° WSW 19:50:33 10° SSW
Lacrosse 5 rocket 1.3 19:44:50 10° WSW 19:49:08 86° SSE 19:53:19 10° ENE
Cosmos 1340 2.4 19:49:51 10° NNW 19:53:17 81° WSW 19:55:25 21° S
PSLV R/B 4.4 19:49:57 10° NNE 19:53:53 45° E 19:56:27 19° SSE
Okean 1 3.2 19:50:57 15° SSW 19:54:08 87° W 19:58:03 10° NNE
Cosmos 1626 3.5 19:59:00 17° ESE 20:00:17 21° E 20:02:47 10° NE
GEOS 3 Rocket 3.8 19:57:45 10° NE 20:03:00 77° NW 20:08:08 10° WSW
BREEZE-M DEB (TANK) 3.6 20:02:15 10° SW 20:07:53 - ESE 20:02:58 16° SW
Cosmos 921 Rocket 4.4 20:04:27 10° SW 20:08:42 40° NW 20:12:58 10° NNE
Meteor 2-17 Rocket 4.4 20:06:28 14° S 20:11:49 89° E 20:17:55 10° NNE
USA 234 3.2 20:06:31 10° ESE 20:13:06 80° SSW 20:19:42 10° WNW
USA 306 3.2 20:09:32 10° W 20:13:08 38° SSW 20:15:01 23° SSE
Cosmos 1943 3.3 20:13:44 10° SW 20:19:26 85° NW 20:25:09 10° NNE
Terra 4.3 20:17:43 10° WSW 20:19:37 12° W 20:21:31 10° WNW
Cosmos 1328 Rocket 4.1 20:19:15 21° SSE 20:21:47 44° E 20:25:55 10° NNE
Spot 4 3.8 20:19:23 20° SSE 20:22:39 89° W 20:27:27 10° NNW
Meteor 2-4 Rocket 4.0 20:18:25 19° S 20:22:41 61° E 20:28:33 10° NNE
Cosmos 1733 4.3 20:20:45 10° NNW 20:23:55 31° W 20:26:10 16° SSW
IRIDIUM 104 4.4 20:18:42 10° N 20:23:56 76° W 20:27:45 19° S
ALOS 2 2.7 20:21:27 21° SSE 20:24:22 71° ENE 20:28:46 10° NNW
Cosmos 1470 Rocket 4.0 20:20:17 10° N 20:24:43 56° ENE 20:27:38 20° SSE
Cosmos 1048 Rocket 4.4 20:20:19 10° SW 20:25:26 62° WNW 20:30:32 10° NNE
H-2A R/B 2.8 20:26:30 21° S 20:29:04 58° WSW 20:33:15 10° NNW
Cosmos 1092 Rocket 4.1 20:25:48 18° S 20:30:33 74° E 20:36:52 10° NNE
Lacrosse 4 Rocket 1.4 20:27:38 10° NW 20:31:42 77° NE 20:34:40 18° SE
Cosmos 1428 Rocket 4.5 20:27:23 16° S 20:32:21 89° WNW 20:38:31 10° NNE
ATLAS 2AS CENTAUR R/B 3.9 20:25:25 10° W 20:32:22 47° NNW 20:39:02 10° ENE
USA 59 Rocket 0.1 20:29:54 10° WNW 20:33:30 55° SW 20:36:26 21° SSE
Cosmos 1656 3.6 20:28:04 10° NW 20:33:34 90° E 20:37:39 18° SSE
NOSS 2-1 (E) 3.7 20:30:45 10° WNW 20:34:21 54° SW 20:37:17 21° SSE
Cosmos 1666 Rocket 3.6 20:30:19 10° NNW 20:34:39 70° W 20:37:19 23° S
Cosmos 1151 Rocket 3.2 20:31:54 17° SSW 20:35:10 70° WNW 20:39:32 10° N
Cosmos 1633 Rocket 3.1 20:34:00 10° NNW 20:38:26 77° W 20:41:08 23° S
ARIANE 5 R/B 3.7 20:38:36 16° SSW 20:41:29 33° W 20:45:26 10° NNW
Cosmos 1992 Rocket 4.1 20:37:04 10° NNW 20:42:17 70° WSW 20:45:43 22° SSE
Cosmos 1697 Rocket 3.2 20:38:28 10° NNW 20:44:03 57° NE 20:49:36 10° SE
ISS -1.6 20:42:39 10° WSW 20:43:46 13° SW 20:43:46 13° SW
CZ-2C R/B 4.2 20:40:52 10° N 20:45:21 55° WNW 20:49:14 13° SW
Cosmos 1340 Rocket 3.5 20:42:10 14° SW 20:45:23 49° WNW 20:49:18 10° N
NOSS 2-1 (D) 3.9 20:42:25 10° WNW 20:45:56 43° SW 20:48:21 23° S
H-2A R/B 3.3 20:42:48 10° NNE 20:46:46 31° E 20:49:05 19° SE
Cosmos 1980 Rocket 3.5 20:44:00 10° NNW 20:49:23 40° NE 20:54:43 10° ESE
Cosmos 1842 4.4 20:48:05 20° SE 20:49:47 29° E 20:53:02 10° NNE
Cosmos 1933 Rocket 4.0 20:45:53 10° N 20:50:10 54° ENE 20:52:58 20° SE
Cosmos 614 Rocket 4.0 20:47:59 20° S 20:51:30 65° ESE 20:56:42 10° NNE
Cosmos 1908 4.2 20:49:36 10° N 20:52:56 35° ENE 20:55:06 18° SE
Cosmos 1766 3.1 20:50:36 10° NNW 20:54:20 80° W 20:56:16 27° S
Cosmos 1470 3.0 20:54:29 10° N 20:58:11 58° ENE 21:00:14 24° SSE
Cosmos 1707 3.8 21:00:02 20° SE 21:01:44 30° E 21:04:58 10° NNE
Cosmos 2360 4.2 21:04:05 10° NW 21:09:50 82° WSW 21:14:09 18° SSE
KORONAS-FOTON 4.4 21:08:47 25° SSE 21:10:28 42° E 21:13:59 10° NNE
SL-16 R/B 4.4 21:10:04 10° NNW 21:14:46 26° NNE 21:19:28 10° E
USA 267 3.5 21:11:11 10° ENE 21:17:31 50° SE 21:23:24 12° SW
Cosmos 1603 4.4 21:17:02 10° SW 21:22:35 53° NW 21:28:13 10° NNE
Orbus 7S? 4.3 21:24:43 21° SE 21:24:43 21° SE 21:26:42 10° E
NOSS 3-4 (A) 3.8 21:21:06 10° NW 21:27:39 86° NE 21:35:18 10° SE
Lacrosse 5 rocket 1.6 21:23:26 10° W 21:27:40 70° N 21:31:45 10° E
Cosmos 1269 Rocket 4.1 21:24:14 22° SSW 21:27:40 70° ESE 21:32:56 10° NNE
NOSS 3-4 (C) 3.8 21:21:09 10° NW 21:27:42 85° NE 21:35:21 10° SE
Helios 1A Rocket 4.1 21:24:57 12° SE 21:28:12 35° ENE 21:31:44 10° N
Cosmos 1140 Rocket 4.4 21:25:30 20° SSE 21:28:28 36° ESE 21:33:13 10° NE
Cosmos 2082 Rocket 4.2 21:27:21 10° SE 21:30:34 15° E 21:33:47 10° ENE
PSLV R/B 3.7 21:28:53 10° NNE 21:33:33 89° ESE 21:36:22 23° SSW
Cosmos 1626 3.1 21:31:50 18° SW 21:33:41 33° WNW 21:36:41 10° N
Cosmos 1674 2.4 21:34:14 29° SSW 21:35:53 84° W 21:39:25 10° N
Meteor 2-10 Rocket 4.2 21:30:22 10° N 21:36:07 58° ENE 21:41:11 13° SSE
Cosmos 2315 Rocket 4.1 21:31:32 10° N 21:37:50 76° ENE 21:42:48 17° SSE
Cosmos 1833 Rocket 3.2 21:35:30 21° S 21:38:53 46° ESE 21:44:14 10° NE
S3M 4.1 21:32:45 10° NNW 21:39:09 80° W 21:43:47 20° S
NOSS 3-3 (C) 4.2 21:38:41 21° SSW 21:42:19 51° SE 21:48:39 10° NE
Cosmos 1300 3.6 21:39:34 10° N 21:42:58 39° ENE 21:45:31 16° SE
Cosmos 44 Rocket 3.2 21:38:15 10° NW 21:43:16 75° SW 21:47:31 13° SE
BREEZE-M DEB (TANK) 3.9 21:33:40 10° SW 21:44:50 39° S 21:48:29 10° ESE
SL-24 R/B 4.3 21:42:05 10° NNE 21:46:26 70° WNW 21:49:34 20° SSW
Cosmos 2285 Rocket 4.5 21:44:24 20° S 21:48:38 50° ESE 21:54:43 10° NE
GP-B 3.1 21:51:26 10° N 21:55:53 86° W 21:58:36 23° S
Cosmos 1763 Rocket 3.7 21:50:52 10° NNW 21:56:13 74° ENE 22:01:25 11° SE
USA 234 3.7 21:51:34 14° SSE 21:56:42 39° SW 22:02:48 10° WNW
Cosmos 1515 Rocket 4.0 21:54:34 20° SW 21:57:23 51° WNW 22:01:38 10° N
CZ-2D R/B 4.4 21:55:50 10° NE 21:59:02 16° E 22:02:13 10° ESE
SL-8 R/B 4.2 21:56:21 10° WSW 22:00:42 36° S 22:05:04 10° ESE
ALOS 2 4.5 21:58:50 13° SW 22:01:11 19° W 22:04:20 10° NW
Cosmos 1400 Rocket 3.8 21:59:47 18° SSE 22:02:14 37° E 22:05:56 10° NNE
Cosmos 2333 Rocket 4.5 21:57:58 10° NNW 22:02:45 27° NNE 22:07:32 10° E
Meteor 1-13 Rocket 4.4 21:58:56 20° S 22:03:10 84° ESE 22:09:07 10° NNE
Cosmos 1869 Rocket 3.8 21:59:08 10° NNW 22:03:23 55° W 22:05:54 23° SSW
NOSS 8 (A) 4.4 22:01:58 15° WSW 22:04:40 70° NW 22:07:36 10° NE
Cosmos 1733 Rocket 3.2 22:02:22 10° N 22:06:42 70° ENE 22:09:57 17° SSE
Meteor 1-23 Rocket 4.5 22:04:57 19° S 22:08:58 61° E 22:14:30 10° NNE
Lacrosse 4 Rocket 3.0 22:06:40 10° WNW 22:09:33 19° WSW 22:10:34 17° SW
Cosmos 1655 Rocket 4.1 22:07:35 19° S 22:12:18 85° E 22:18:44 10° NNE
Aureole 3 4.3 22:10:46 16° SE 22:12:26 26° E 22:14:58 10° NE
Cosmos 2322 Rocket 3.9 22:12:03 10° NNW 22:17:12 34° NE 22:22:20 10° ESE
Cosmos 1818 3.6 22:13:02 17° SW 22:17:22 81° SE 22:22:53 10° NE
Cosmos 1346 Rocket 3.2 22:13:50 10° N 22:17:40 57° ENE 22:20:57 14° SSE
H-2A R/B 2.9 22:18:22 10° N 22:22:36 44° WNW 22:25:53 16° SW
USA 59 Rocket 2.3 22:21:31 10° WSW 22:22:50 11° WSW 22:22:59 11° WSW
Cosmos 540 Rocket 3.5 22:18:53 10° NNW 22:24:06 87° ENE 22:29:17 10° SSE
Resurs 1-4 Rocket 3.9 22:20:01 10° NE 22:24:10 23° E 22:28:16 10° SE
ATLAS 2AS CENTAUR R/B 3.9 22:17:47 10° WNW 22:24:36 46° NNE 22:31:07 10° E
Cosmos 1842 4.4 22:22:35 16° WSW 22:24:58 31° WNW 22:28:18 10° N
Meteor 1-12 Rocket 4.4 22:19:46 10° NNW 22:25:34 66° W 22:30:07 17° S
Cosmos 1697 Rocket 3.4 22:22:43 10° NW 22:27:51 36° WSW 22:31:17 19° SSW
APEX 2.0 22:28:03 35° WSW 22:28:44 59° NW 22:30:54 10° NNE
OPS 6432 4.0 22:25:35 10° NW 22:28:48 78° SW 22:31:54 10° SE
Cosmos 1441 Rocket 4.0 22:25:47 10° NNW 22:29:05 34° W 22:30:46 22° SW
CZ-2C R/B 3.7 22:25:02 10° SE 22:29:53 43° ENE 22:34:47 10° N
SL-14 R/B 3.4 22:27:37 21° S 22:30:06 68° E 22:33:57 10° NNE
Cosmos 1953 3.3 22:27:14 10° N 22:31:01 43° ENE 22:34:45 10° SE
Cosmos 1980 Rocket 2.3 22:28:03 10° NW 22:33:41 60° WSW 22:38:51 12° SSE
COSMOS 2406 4.3 22:30:09 14° SSE 22:34:29 34° ESE 22:39:38 10° NE
Cosmos 1707 3.9 22:34:21 15° WSW 22:36:43 30° WNW 22:40:00 10° N
Cosmos 2369 3.7 22:31:36 10° NW 22:37:18 70° WSW 22:42:58 10° SSE
Cosmos 2266 Rocket 4.5 22:35:15 16° SW 22:40:07 51° WNW 22:46:13 10° N
SL-16 R/B 3.9 22:35:03 10° SE 22:40:49 41° ENE 22:46:38 10° N
Cosmos 1758 3.6 22:38:01 10° NNW 22:41:43 47° W 22:44:00 20° SSW
Cosmos 1862 Rocket 3.6 22:38:55 18° S 22:42:02 73° E 22:46:22 10° NNE
Meteor 1-16 Rocket 4.3 22:37:36 10° NNW 22:43:13 88° ENE 22:48:56 10° SSE
Cosmos 1607 4.2 22:39:11 17° SSW 22:44:17 66° SE 22:50:44 10° NE
Meteor 1-21 4.3 22:45:11 16° S 22:49:47 78° E 22:55:33 10° NNE
SL-16 R/B 2.5 22:54:09 10° NNW 22:59:51 71° NE 23:05:31 10° SE
Cosmos 1455 2.2 22:57:28 10° N 23:00:55 68° ENE 23:04:21 10° SSE
USA 267 3.3 22:54:21 10° ENE 23:00:56 90° SE 23:07:31 10° WSW
Helios 1A Rocket 3.8 23:00:20 18° SSW 23:02:36 31° W 23:06:05 10° NNW
Cosmos 1315 Rocket 4.0 23:00:52 10° SSE 23:04:24 35° E 23:08:00 10° NNE
Cosmos 2228 Rocket 3.4 23:01:24 17° SSW 23:04:44 55° WNW 23:09:11 10° N
H-2A R/B 4.1 23:00:56 10° NNE 23:04:50 47° E 23:08:22 12° S
NOSS 3-3 (A) 4.2 23:00:05 10° WSW 23:05:54 72° NNW 23:12:52 10° NE
Lacrosse 5 rocket 1.2 23:01:58 10° WNW 23:06:07 72° SSW 23:10:05 10° ESE
Cosmos 1707 Rocket 3.8 23:03:45 16° SSW 23:07:07 59° WNW 23:11:32 10° N
Cosmos 841 Rocket 3.5 23:04:35 10° NNW 23:09:51 87° WSW 23:15:06 10° SSE
Cosmos 1140 Rocket 4.1 23:05:26 12° SW 23:10:07 50° NW 23:15:14 10° NNE
Cosmos 2251 Rocket 3.7 23:05:57 15° SW 23:10:22 70° WNW 23:15:41 10° NNE
Meteor 1-4 Rocket 3.2 23:09:09 12° SSE 23:11:38 36° E 23:14:25 10° NNE
Cosmos 2237 4.3 23:07:06 10° NW 23:12:53 89° WSW 23:18:38 10° SSE
Cosmos 2082 Rocket 2.4 23:08:47 14° SSW 23:13:38 69° ESE 23:19:21 10° NE
RESURS DK-1 4.4 23:10:07 10° NNW 23:13:48 32° NE 23:17:28 10° ESE
Cosmos 676 Rocket 4.3 23:12:40 13° S 23:17:19 62° ESE 23:22:36 10° NNE
Cosmos 1300 4.1 23:14:44 10° NW 23:17:32 22° W 23:19:33 14° SW
NOSS 3-4 (A) 4.4 23:12:09 10° WNW 23:18:14 35° WSW 23:25:06 10° S
NOSS 3-4 (C) 4.4 23:12:12 10° WNW 23:18:17 35° WSW 23:25:10 10° S
Cosmos 2219 Rocket 3.8 23:14:02 10° NNW 23:19:18 38° NE 23:24:34 10° ESE
ADEOS II 3.2 23:14:37 10° NNE 23:19:32 38° E 23:24:24 10° SSE
Cosmos 1833 Rocket 3.4 23:17:27 10° WSW 23:22:51 47° NW 23:28:19 10° NNE
Cosmos 407 Rocket 4.0 23:18:38 12° SW 23:23:26 55° NW 23:28:36 10° NNE
Cosmos 1954 Rocket 4.1 23:20:53 13° SSW 23:25:36 82° ESE 23:30:57 10° NNE
Cosmos 2360 Rocket 2.8 23:20:39 10° NNW 23:26:18 61° NE 23:31:56 10° SE
Cosmos 1190 Rocket 4.1 23:21:55 14° SSW 23:26:35 80° WNW 23:31:56 10° NNE
MOZ.5/SAFIR/RUBIN 5/SL-8 4.5 23:24:18 13° SSW 23:28:13 39° W 23:32:39 10° NNW
Cosmos 1782 Rocket 3.6 23:24:34 10° N 23:29:01 84° E 23:33:23 10° SSE
IDEFIX/ARIANE 42P 2.7 23:24:48 10° NNE 23:30:06 80° ESE 23:35:20 10° SSW
Cosmos 1908 Rocket 3.8 23:25:50 10° NNW 23:30:12 56° W 23:34:31 10° S
Okean 1-7 3.0 23:26:56 13° SSW 23:30:45 77° WNW 23:35:05 10° N
Okean 2 3.3 23:28:57 13° SSW 23:32:29 78° WNW 23:36:30 10° N
NOSS 3-3 (C) 4.5 23:27:22 10° WSW 23:33:11 61° NNW 23:40:12 10° NE
SJ 16-02 3.7 23:31:23 10° SE 23:34:14 18° E 23:37:07 10° NE
CZ-2C R/B 3.8 23:31:10 10° NNE 23:36:56 59° E 23:42:38 10° S
Cosmos 1400 Rocket 4.1 23:34:57 11° SW 23:38:20 29° WNW 23:41:54 10° N
Cosmos 1408 4.0 23:36:46 10° SSE 23:39:19 26° E 23:41:54 10° NNE
Cosmos 1745 Rocket 4.1 23:33:29 10° S 23:39:42 89° E 23:46:02 10° NNE
CZ-2D R/B 2.4 23:34:30 10° NNE 23:40:01 74° ESE 23:45:28 10° S
Cosmos 2278 3.8 23:34:25 10° NW 23:40:01 57° WSW 23:45:36 10° SSE
ALOS 3.7 23:37:38 10° NNE 23:41:51 33° E 23:46:01 10° SSE
Cosmos 2333 Rocket 2.5 23:42:13 10° NNW 23:47:57 75° NE 23:53:42 10° SE
COBE Rocket 4.0 23:44:25 10° N 23:49:12 69° WNW 23:54:06 10° SSW
Cosmos 1346 Rocket 4.5 23:50:29 10° NW 23:53:09 18° W 23:55:50 10° SW
Aureole 3 4.5 23:50:53 10° WSW 23:53:11 20° WNW 23:55:30 10° NNW
FENGYUN 3A 4.1 23:47:56 10° NNE 23:53:18 63° ESE 23:58:37 10° S
Okean 3 4.5 23:50:24 10° SW 23:54:04 32° WNW 23:57:48 10° N
Cosmos 2242 Rocket 4.2 23:50:15 10° S 23:54:35 56° E 23:58:59 10° NNE
